Weather History for LEZL - November, 2012

Change the Weather History Date:

Friday, November 9, 2012

  Actual Average Record
Temperature  
Mean Temperature 62 °F -  
Max Temperature 68 °F 64 °F 77 °F (1996)
Min Temperature 55 °F 47 °F 42 °F (2000)
Degree Days  
Heating Degree Days 4    
Growing Degree Days 12 (Base 50)    
Moisture  
Dew Point 57 °F    
Average Humidity 91    
Maximum Humidity 100    
Minimum Humidity 68    
Precipitation  
Precipitation 0.00 in - - ()
Sea Level Pressure  
Sea Level Pressure 29.96 in    
Wind  
Wind Speed 2 mph ()    
Max Wind Speed 20 mph    
Max Gust Speed 31 mph    
Visibility 5.8 miles    
Events Rain , Thunderstorm    
Averages and records for this station are not official NWS values.
T = Trace of Precipitation, MM = Missing Value Source: Averaged Metar Reports

Daily Weather History Graph

Daily Weather History Graph

Search for Another Location

Airport or City:

Trip Planner

Search our weather history database for the weather conditions in past years. The results will help you decide how hot, cold, wet, or windy it might be!

Date:

Astronomy

Nov. 09, 2012 Rise Set
Actual Time 7:56 AM CET 6:17 PM CET
Civil Twilight 7:29 AM CET 6:44 PM CET
Nautical Twilight 6:58 AM CET 7:16 PM CET
Astronomical Twilight 6:27 AM CET 7:46 PM CET
Moon 2:46 AM CET (11/9) 3:17 PM CET (11/9)
Length of Visible Light 11h 15m
Length of Day
10h 20m
Waning Crescent, 25% of the Moon is Illuminated
Nov 9
Waning Crescent
Nov 13
New
Nov 20
First Quarter
Nov 28
Full
Dec 6
Last Quarter

Hourly Weather History & Observations

Time (CET) Temp. Dew Point Humidity Pressure Visibility Wind Dir Wind Speed Gust Speed Precip Events Conditions
12:00 AM 60.8 °F 60.8 °F 100% 29.98 in 6.2 mi Calm Calm - N/A   Scattered Clouds
12:30 AM 60.8 °F 60.8 °F 100% 29.98 in 4.3 mi Calm Calm - N/A Rain Rain
1:00 AM 60.8 °F 60.8 °F 100% 29.98 in 3.7 mi Calm Calm - N/A Rain Light Rain
4:30 AM 60.8 °F 59.0 °F 94% 29.95 in 6.2 mi South 4.6 mph - N/A Rain Light Rain
5:00 AM 60.8 °F 59.0 °F 94% 29.95 in 6.2 mi SE 5.8 mph - N/A Rain Light Rain
5:30 AM 60.8 °F 59.0 °F 94% 29.95 in 6.2 mi Variable 1.2 mph - N/A Rain Rain
6:00 AM 60.8 °F 59.0 °F 94% 29.95 in 6.2 mi South 2.3 mph - N/A Rain Light Rain
6:30 AM 59.0 °F 59.0 °F 100% 29.95 in 6.2 mi South 2.3 mph - N/A Rain Light Rain
7:00 AM 59.0 °F 59.0 °F 100% 29.95 in 6.2 mi SSE 2.3 mph - N/A   Partly Cloudy
7:30 AM 59.0 °F 59.0 °F 100% 29.95 in - WSW 1.2 mph - N/A   Clear
8:00 AM 59.0 °F 59.0 °F 100% 29.95 in - WSW 2.3 mph - N/A   Clear
8:30 AM 59.0 °F 59.0 °F 100% 29.95 in 4.3 mi Variable 1.2 mph - N/A   Unknown
9:00 AM 59.0 °F 59.0 °F 100% 29.98 in 4.3 mi Calm Calm - N/A   Unknown
9:30 AM 59.0 °F 59.0 °F 100% 29.98 in 5.0 mi Calm Calm - N/A   Partly Cloudy
10:30 AM 60.8 °F 60.8 °F 100% 29.98 in 5.0 mi ESE 2.3 mph - N/A   Mostly Cloudy
11:00 AM 60.8 °F 59.0 °F 94% 29.98 in 5.0 mi Calm Calm - N/A   Mostly Cloudy
11:30 AM 62.6 °F 59.0 °F 88% 29.98 in 6.2 mi Variable 2.3 mph - N/A   Scattered Clouds
12:00 PM 64.4 °F 59.0 °F 83% 29.98 in 6.2 mi Variable 2.3 mph - N/A   Scattered Clouds
12:30 PM 66.2 °F 59.0 °F 78% 29.98 in 6.2 mi Variable 2.3 mph - N/A   Partly Cloudy
1:00 PM 68.0 °F 57.2 °F 68% 29.95 in 6.2 mi Calm Calm - N/A   Partly Cloudy
1:30 PM 66.2 °F 57.2 °F 73% 29.95 in 6.2 mi SE 2.3 mph - N/A   Scattered Clouds
1:50 PM 60.8 °F 55.4 °F 82% 29.95 in 3.7 mi WSW 19.6 mph 31.1 mph N/A Rain Rain Showers
2:00 PM 59.0 °F 57.2 °F 94% 29.95 in 6.2 mi West 5.8 mph 18.4 mph N/A Rain Rain Showers
2:30 PM 59.0 °F 55.4 °F 88% 29.95 in 6.2 mi Variable 2.3 mph - N/A Rain , Thunderstorm Thunderstorms and Rain
2:47 PM 59.0 °F 57.2 °F 94% 29.95 in 6.2 mi Variable 2.3 mph - N/A Rain Light Rain
3:30 PM 60.8 °F 59.0 °F 94% 29.95 in 6.2 mi Variable 2.3 mph - N/A   Partly Cloudy
3:45 PM 60.8 °F 57.2 °F 88% 29.95 in 6.2 mi SW 4.6 mph - N/A Rain Rain
4:00 PM 60.8 °F 55.4 °F 82% 29.95 in 6.2 mi SW 6.9 mph - N/A Rain Light Rain
4:30 PM 62.6 °F 55.4 °F 77% 29.95 in 6.2 mi South 6.9 mph - N/A   Scattered Clouds
5:00 PM 62.6 °F 53.6 °F 72% 29.95 in 6.2 mi SSW 5.8 mph - N/A   Partly Cloudy
5:30 PM 62.6 °F 53.6 °F 72% 29.95 in 6.2 mi Variable 2.3 mph - N/A   Partly Cloudy
6:00 PM 60.8 °F 53.6 °F 77% 29.95 in 6.2 mi Variable 2.3 mph - N/A   Partly Cloudy
6:30 PM 59.0 °F 55.4 °F 88% 29.95 in 6.2 mi SSE 2.3 mph - N/A   Partly Cloudy
7:00 PM 59.0 °F 55.4 °F 88% 29.95 in 6.2 mi Calm Calm - N/A   Partly Cloudy
7:30 PM 57.2 °F 55.4 °F 94% 29.95 in 6.2 mi Calm Calm - N/A   Partly Cloudy
8:00 PM 57.2 °F 55.4 °F 94% 29.95 in 6.2 mi SE 3.5 mph - N/A   Partly Cloudy
8:30 PM 55.4 °F 55.4 °F 100% 29.98 in 6.2 mi ESE 1.2 mph - N/A   Partly Cloudy
9:00 PM 55.4 °F 55.4 °F 100% 29.95 in 6.2 mi East 1.2 mph - N/A   Partly Cloudy
9:30 PM 55.4 °F 53.6 °F 94% 29.98 in 6.2 mi East 2.3 mph - N/A   Partly Cloudy
10:00 PM 55.4 °F 53.6 °F 94% 29.98 in 6.2 mi Calm Calm - N/A   Partly Cloudy
10:30 PM 55.4 °F 53.6 °F 94% 29.98 in 6.2 mi SSE 1.2 mph - N/A   Partly Cloudy
11:00 PM 55.4 °F 55.4 °F 100% 29.98 in 6.2 mi Calm Calm - N/A   Partly Cloudy
11:30 PM 55.4 °F 53.6 °F 94% 29.98 in 5.0 mi Calm Calm - N/A   Partly Cloudy